Home > Time Zones > World Clock > Weather > Japan > Tokyo > Past weeks

Flag for Japan Weather past 2 weeks in Tokyo, Japan

Now
84 °F

Warm.


Feels Like: 92 °F
Forecast: 78 / 95 °F
Wind: 6 mph from South

Location: Tokyo

Current Time: Jul 27, 2014 at 5:25:48 AM

Latest Report: Jul 27, 2014 at 4:00 AM


Visibility: N/A

Pressure: 29.70 "Hg

Humidity: 72%

Dew point: 74 °F

Location of TokyoLocation

Historic Weather in Tokyo — Graph

°F

Tokyo temperature yesterday

Maximum temperature yesterday: 92 °F (at 2:00 PM)
Minimum temperature yesterday: 82 °F (at 5:00 AM)
Average temperature yesterday: 87 °F

Past Weeks' High & Low Weather Summary

 TemperatureHumidityPressure
High95 °F (Jul 25, 2:00 PM)94% (Jul 20, 8:00 PM)29.98 "Hg (Jul 20, 8:00 PM)
Low71 °F (Jul 20, 3:00 AM)48% (Jul 25, 2:00 PM)29.55 "Hg (Jul 12, 4:00 AM)
Average82 °F74%29.81 "Hg
* Reported Jul 12 4:00 AM — Jul 27 4:00 AM, Tokyo, Weather by CustomWeather, © 2014

Note: Actual official high and low records may vary slightly from our data, if they occured in-between our weather recording intervals... More about our weather records

Advertising

Tokyo weather history for previous 24 hours

 ConditionsComfort  
Time TempWeatherWind HumidityBarometerVisibility
4:00 AM
Jul 27
84 °FWarm.6 mph72%29.70 "HgN/A
3:00 AM85 °FClear.6 mph68%29.70 "Hg12 mi
2:00 AM85 °FWarm.7 mph70%29.70 "HgN/A
1:00 AM85 °FWarm.6 mph71%29.71 "HgN/A
12:00 AM85 °FWarm.12 mph71%29.74 "HgN/A
11:00 PM
Jul 26
86 °FWarm.13 mph70%29.76 "HgN/A
10:00 PM86 °FWarm.9 mph69%29.77 "HgN/A
9:00 PM87 °FClear.9 mph68%29.77 "Hg9 mi
8:00 PM87 °FWarm.9 mph70%29.78 "HgN/A
7:00 PM88 °FWarm.10 mph72%29.78 "HgN/A
6:00 PM87 °FClear.8 mph77%29.78 "Hg6 mi
5:00 PM88 °FWarm.12 mph74%29.79 "HgN/A
4:00 PM90 °FHot.13 mph67%29.80 "HgN/A
3:00 PM90 °FPassing clouds.12 mph64%29.82 "Hg6 mi
2:00 PM92 °FHot.10 mph56%29.83 "HgN/A
1:00 PM92 °FHot.13 mph57%29.85 "HgN/A
12:00 PM90 °FHaze.8 mph60%29.87 "Hg5 mi
11:00 AM90 °FHot.9 mph63%29.89 "HgN/A
10:00 AM90 °FHot.7 mph66%29.90 "HgN/A
9:00 AM87 °FFog.3 mph73%29.90 "Hg4 mi
8:00 AM86 °FWarm.2 mph74%29.91 "HgN/A
7:00 AM85 °FWarm.3 mph80%29.90 "HgN/A
6:00 AM83 °FFog.2 mph82%29.90 "Hg5 mi
5:00 AM82 °FWarm.2 mph85%29.89 "HgN/A
Weather by CustomWeather, © 2014

See weather overviewHow to use our weather pages